Vorticity
nan nan nan nan nan nan nan nan nan nan nan nan nan nan nan nan nan nan nan nan nan nan nan nan nan nan nan nan nan nan nan nan nan nan nan nan nan nan nan nan nan nan nan nan
nan 12 13 14 10 9 10 9 8 11 15 12 14 10 6 10 8 11 10 9 10 6 10 10 6 12 10 5 11 11 11 20 23 7 -3 12 10 29 28 16 8 8 19 nan
nan 15 17 11 7 9 12 10 5 9 14 13 14 8 6 9 7 8 10 9 12 9 7 6 7 12 13 6 2 12 15 14 17 15 10 10 9 8 19 28 21 10 8 nan
nan 17 14 9 6 8 13 11 10 12 11 8 9 6 9 10 11 5 11 11 7 9 10 5 5 13 18 9 4 18 13 6 1 1 1 11 9 7 8 13 19 16 10 nan
nan 18 13 9 5 8 17 12 10 10 9 9 8 6 6 10 7 9 10 9 10 12 9 6 6 9 11 11 15 18 17 7 -8 1 -2 -14 -2 5 7 5 11 14 14 nan
nan 19 19 10 4 9 14 10 11 14 11 7 7 10 9 8 11 9 6 11 16 15 2 5 9 7 2 3 18 19 12 12 10 4 4 -2 -4 4 6 4 8 10 8 nan
nan 16 18 14 14 17 13 8 11 10 11 10 11 13 11 9 11 8 8 13 14 10 12 11 9 5 -2 -0 16 22 16 10 14 16 10 10 6 3 4 -3 5 8 6 nan
nan 12 11 12 13 21 19 10 7 11 9 4 2 12 17 13 6 6 9 12 14 14 12 9 10 13 8 -1 -1 12 20 17 13 12 19 4 -5 7 8 7 3 4 7 nan
nan 11 10 9 8 13 13 10 12 13 6 7 10 6 10 11 16 10 6 10 13 9 10 11 10 11 8 10 -0 -1 14 17 12 11 7 5 2 7 22 22 -14 0 15 nan
nan 10 11 9 6 14 14 9 16 14 8 7 17 15 10 13 15 12 7 6 11 12 12 8 12 9 11 11 8 9 10 3 8 13 12 4 3 12 21 10 1 8 15 nan
nan 11 11 9 7 16 15 11 16 13 6 5 7 11 15 14 13 11 17 13 6 12 11 10 9 13 15 8 9 11 11 13 7 9 10 1 7 15 14 7 5 10 11 nan
nan 11 12 11 9 15 19 12 10 11 11 9 4 4 9 13 14 13 12 16 11 12 11 9 11 12 6 10 9 13 18 14 10 9 13 6 13 14 4 7 9 10 11 nan
nan 11 11 10 9 14 17 9 8 9 8 4 5 5 10 14 14 21 17 12 11 11 13 14 11 6 10 14 13 8 7 11 16 11 9 12 10 11 12 9 10 9 10 nan
nan 11 12 11 9 7 11 9 11 11 6 5 8 8 9 12 10 18 22 13 10 10 12 13 12 9 11 13 10 7 8 9 9 8 13 11 5 10 10 9 9 8 9 nan
nan 8 7 7 8 9 12 8 12 12 13 12 8 3 4 10 11 9 9 11 10 10 11 10 10 10 7 9 7 6 11 12 10 7 6 10 7 9 11 9 8 8 9 nan
nan 7 7 7 5 12 10 9 8 8 13 13 11 6 6 6 6 6 8 11 11 10 9 8 9 8 10 10 11 10 9 6 9 11 7 10 10 8 9 9 10 9 9 nan
nan 9 11 12 17 20 12 10 4 9 15 13 12 11 6 7 8 7 8 9 9 9 10 12 13 9 8 9 17 12 6 7 8 7 9 9 9 9 10 9 12 11 8 nan
nan 9 7 10 17 11 6 4 5 14 17 12 9 12 10 10 11 7 9 9 9 10 12 10 9 11 8 14 15 10 7 7 8 7 9 7 9 11 10 11 10 10 10 nan
nan 4 8 4 2 6 6 8 14 15 12 13 12 11 12 8 8 12 10 7 10 10 12 12 11 11 12 16 12 9 7 8 10 7 7 9 10 10 9 11 9 9 9 nan
nan 8 10 15 11 12 11 9 12 12 14 13 10 10 16 11 8 10 10 10 11 11 13 9 12 12 16 15 11 11 9 9 8 8 8 7 8 9 8 10 10 10 11 nan
nan 14 10 12 12 11 11 11 13 10 12 13 13 12 10 13 11 7 11 11 11 12 12 10 12 17 20 13 9 10 9 8 6 7 8 7 7 8 9 9 10 10 11 nan
nan 9 12 9 11 11 11 11 12 12 13 15 13 11 9 12 10 12 10 9 11 13 8 11 12 21 21 14 10 8 8 7 6 5 6 8 6 7 9 9 10 11 12 nan
nan 12 11 8 11 11 14 10 10 16 15 13 12 11 9 10 10 12 12 12 9 10 11 12 16 18 15 13 11 10 8 7 7 7 7 7 8 8 8 8 9 9 10 nan
nan 11 10 11 8 11 12 13 13 14 18 15 9 7 9 12 14 10 11 10 10 11 12 14 20 17 12 11 11 11 10 8 7 8 8 9 9 8 8 9 12 8 5 nan
nan 9 13 12 6 14 12 12 16 13 15 11 6 8 11 10 11 11 11 10 11 13 11 14 19 19 12 11 10 9 9 9 10 10 10 10 10 10 9 9 8 11 11 nan
nan 11 9 14 15 11 11 9 10 12 11 8 7 9 12 12 11 14 10 9 12 14 13 13 17 16 11 11 11 11 10 10 10 10 11 11 10 8 9 11 11 12 10 nan
nan nan nan nan nan nan nan nan nan nan nan nan nan nan nan nan nan nan nan nan nan nan nan nan nan nan nan nan nan nan nan nan nan nan nan nan nan nan nan nan nan nan nan nan
CAPE
0 0 0 0 0 0 0 0 0 0 0 0 0 0 0 0 0 0 1 4 7 8 5 12 19 17 11 11 11 18 41 20 39 6 2 1 29 154 105 55 24 13 10 66
0 0 0 0 0 0 0 0 0 0 0 0 0 0 0 0 0 0 0 3 6 6 11 14 16 13 15 6 24 27 23 20 14 5 0 9 40 3 43 0 9 51 6 91
0 0 0 0 0 0 0 0 0 0 0 0 0 0 0 0 0 0 0 3 3 12 15 16 11 14 14 4 11 5 18 6 2 41 59 45 17 7 6 4 9 17 11 13
0 0 0 0 0 0 0 0 0 0 9 0 0 0 0 0 0 0 1 6 7 11 17 17 15 15 9 5 10 21 48 28 7 34 28 9 22 13 11 23 23 25 26 16
0 0 0 0 0 0 0 0 0 0 0 0 0 0 0 0 0 0 2 9 11 12 12 8 22 18 18 35 18 28 45 37 18 12 0 0 12 11 9 19 23 17 10 9
0 0 0 0 0 0 0 0 0 0 0 0 0 0 0 0 0 0 0 5 12 10 15 6 14 29 44 27 16 14 25 22 25 11 0 9 5 38 8 8 30 41 22 43
0 0 0 0 0 0 0 0 0 0 0 0 0 0 0 0 0 0 1 2 7 3 0 0 19 20 18 23 10 15 32 18 8 9 6 8 33 41 11 6 41 45 25 36
0 0 0 0 0 0 0 0 0 0 0 0 0 0 0 0 0 0 0 0 0 1 8 28 9 13 10 13 13 1 0 6 0 22 12 20 4 12 32 23 12 76 63 54
0 0 0 0 0 0 0 0 0 0 0 0 0 0 0 0 0 3 0 0 0 1 8 7 13 21 6 6 11 6 3 0 2 1 6 4 14 14 0 7 0 59 65 51
0 0 0 0 0 0 0 0 0 0 10 0 0 0 0 0 0 0 0 0 6 11 19 24 18 16 4 10 8 10 16 14 14 8 2 1 37 15 0 4 24 76 78 49
0 0 0 0 0 0 0 0 0 0 0 0 0 0 0 0 0 7 0 6 3 23 17 18 16 24 16 13 17 6 17 22 23 11 1 2 40 22 28 56 59 40 22 19
0 0 0 0 0 0 0 0 0 0 0 0 0 0 0 0 0 9 1 0 2 8 18 10 20 25 18 14 17 1 5 19 9 28 14 133 60 62 73 31 34 12 4 1
0 0 0 0 0 0 0 0 0 0 0 0 0 0 0 0 0 0 0 0 0 6 13 20 12 9 22 13 12 8 11 10 18 25 29 59 26 30 28 25 24 7 0 0
0 0 0 0 0 0 0 0 0 0 0 5 0 0 0 0 0 0 0 0 1 4 7 11 5 1 0 3 3 5 3 3 7 14 20 21 11 14 20 19 14 5 1 0
0 0 0 0 0 0 0 0 0 0 0 0 0 0 0 0 0 0 0 0 0 1 3 2 0 0 0 0 0 10 6 6 13 19 10 17 14 10 8 18 14 10 4 0
0 0 0 0 0 0 0 0 0 0 0 0 0 0 0 0 0 0 0 0 0 0 0 0 0 0 1 0 0 0 0 0 1 0 1 2 2 5 5 17 19 8 6 4
0 0 0 0 0 0 0 0 0 0 0 0 0 0 0 0 0 0 0 0 0 0 0 0 0 0 0 0 0 0 0 0 0 0 0 0 0 1 2 6 7 14 5 4
0 0 0 0 0 0 0 0 0 0 0 0 0 0 0 0 0 0 0 0 0 0 0 0 0 0 0 0 0 0 0 0 0 0 0 0 0 0 0 0 1 14 13 4
0 0 0 0 0 0 0 0 0 0 0 0 0 0 0 0 0 0 0 0 0 0 0 0 0 0 0 0 0 0 0 0 0 0 0 0 0 0 0 0 0 0 1 3
0 0 1 1 0 0 0 0 0 0 0 0 0 0 0 0 0 0 0 0 0 0 0 0 0 0 0 0 0 0 0 0 0 0 0 0 0 0 0 0 0 0 0 3
0 1 0 0 0 0 0 2 0 0 0 0 0 0 0 0 0 0 0 0 0 0 0 0 0 0 0 0 0 0 0 0 0 0 0 0 0 0 0 0 0 0 0 0
0 0 0 0 0 0 0 0 0 0 0 0 0 0 0 0 0 0 0 0 0 0 0 0 0 0 0 0 0 0 0 0 0 0 0 0 0 0 0 0 0 0 0 0
0 0 0 0 0 0 0 0 0 0 0 0 0 0 0 0 0 0 0 0 0 0 0 0 0 0 0 0 0 0 0 0 0 0 0 0 0 0 0 0 0 0 0 0
0 0 0 0 0 0 0 0 0 0 0 0 0 0 0 0 0 0 0 0 0 0 0 0 0 0 0 0 0 0 0 0 0 0 0 0 0 0 0 0 0 0 0 0
0 0 0 0 0 0 0 0 0 0 0 0 0 0 0 0 0 0 0 0 0 0 0 0 0 0 0 0 0 0 0 0 0 0 0 0 0 0 0 0 0 0 0 0
0 0 0 0 0 0 0 0 0 0 0 0 0 0 0 0 0 0 0 0 0 0 0 0 0 0 0 0 0 0 0 0 0 0 0 0 0 0 0 0 0 0 0 0
0 0 0 0 0 0 0 0 0 0 0 0 0 0 0 0 0 0 0 0 0 0 0 0 0 0 0 0 0 0 0 0 0 0 0 0 0 0 0 0 0 0 0 0